Regional Weather Roundup
Issued by NWS

Home | Current Version | Previous Version | Graphics & Text | Print | Product List | Glossary Off
Versions: 1 2 3 4 5 6 7 8 9 10 11 12 13 14 15 16 17 18 19 20 21 22 23 24 25 26 27 28 29 30 31 32 33 34 35 36 37 38 39 40 41 42 43 44 45 46 47 48 49 50

000
ASUS43 KTOP 281308
RWRKS

WEATHER ROUNDUP FOR KANSAS
NATIONAL WEATHER SERVICE GOODLAND KS
800 AM CDT WED JUN 28 2017

NOTE:  "FAIR" INDICATES FEW OR NO CLOUDS BELOW 12,000 FEET WITH NO
SIGNIFICANT WEATHER AND/OR OBSTRUCTIONS TO VISIBILITY.

KSZ001>006-013>018-027>032-041>047-281400-
NORTHWEST KANSAS

CITY           SKY/WX    TMP DP  RH WIND       PRES   REMARKS
GOODLAND       SUNNY     62  58  86 N8        29.83S
HAYS           SUNNY     73  68  84 S15       29.76S
HILL CITY      SUNNY     74  66  76 S15G23    29.75R
RUSSELL        SUNNY     72  67  84 S21G28    29.74F
$$

KSZ061>065-074>080-084>089-281400-
SOUTHWEST KANSAS

CITY           SKY/WX    TMP DP  RH WIND       PRES   REMARKS
DODGE CITY     SUNNY     73  65  75 SE17G26   29.80S
ELKHART          N/A     70  49  47 SW13        N/A
GARDEN CITY    SUNNY     72  60  66 S14       29.77S
GREAT BEND     MOSUNNY   74  68  81 S20G26    29.80S
LIBERAL        SUNNY     75  62  64 S24G30    29.79F
PRATT          CLOUDY    69  64  85 S15       29.84S
$$

KSZ066>073-081>083-090>101-281400-
SOUTHEAST KANSAS

CITY           SKY/WX    TMP DP  RH WIND       PRES   REMARKS
CHANUTE          N/A    N/A N/A N/A MISG      29.93S
COFFEYVILLE    PTSUNNY   75  66  73 S12G21    29.93F
HUTCHINSON     LGT RAIN  73  68  84 S17G25    29.84R
MEDICINE LODGE   N/A     72  66  81 SE10      29.84F
NEWTON         LGT RAIN  71  67  87 S24G35    29.85F
PARSONS        PTSUNNY   73  65  75 S8        29.94F
WICHITA INTL   CLOUDY    72  69  90 S12       29.88S
WICHITA JABRA  CLOUDY    72  68  87 S15       29.88S
WICHITA MCCONL CLOUDY    72  67  84 SW13      29.89R
WINFIELD       MOSUNNY   74  69  85 S13       29.91R
$$

KSZ007>012-019>026-033>040-048>060-102>105-281400-
NORTHEAST KANSAS

CITY           SKY/WX    TMP DP  RH WIND       PRES   REMARKS
CONCORDIA      CLOUDY    73  65  75 S15G23    29.74S
EMPORIA        CLOUDY    72  67  84 S17G25    29.87S
LAWRENCE       CLOUDY    74  67  78 S17G25    29.86S
MANHATTAN      CLOUDY    75  68  78 SW26G43   29.73R
MARYSVILLE     CLOUDY    73  68  83 S8        29.75S
OLATHE IND     CLOUDY    73  65  75 S16       29.89R
OLATHE EXE     CLOUDY    71  66  84 S16G23    29.89R
SALINA         CLOUDY    74  68  81 S23G35    29.76F THUNDER
TOPEKA BILLARD CLOUDY    74  68  81 S16G28    29.83F
TOPEKA FORBES  CLOUDY    75  68  78 S18G26    29.84F
$$




USA.gov is the U.S. government's official web portal to all federal, state and local government web resources and services.